This is the latest recevied weather packets stored in our database for station/object KD8OUK. If no packets are shown the sender has not sent any weather packets the latest 10 day(s).
| Time | Temp. | Humidity | Pressure | Rain* | Wind** | Luminosity | Snow |
|---|---|---|---|---|---|---|---|
| 1778095219 | 12.22° C | 58% | 1013.6 hPa | 0 mm | - | - | - |
| 1778094930 | 12.22° C | 58% | 1013.6 hPa | 0 mm | - | - | - |
| 1778094622 | 12.22° C | 58% | 1013.6 hPa | 0 mm | - | - | - |
| 1778094332 | 12.22° C | 58% | 1013.6 hPa | 0 mm | - | - | - |
| 1778094024 | 12.22° C | 58% | 1013.5 hPa | 0 mm | - | - | - |
| 1778093716 | 12.78° C | 58% | 1013.5 hPa | 0 mm | - | - | - |
| 1778093426 | 12.78° C | 58% | 1013.5 hPa | 0 mm | - | - | - |
| 1778093118 | 12.78° C | 59% | 1013.5 hPa | 0 mm | - | - | - |
| 1778092829 | 12.78° C | 61% | 1013.5 hPa | 0 mm | - | - | - |
| 1778092522 | 12.78° C | 60% | 1013.5 hPa | 0 mm | - | - | - |
| 1778092230 | 12.22° C | 60% | 1013.5 hPa | 0 mm | - | - | - |
| 1778091924 | 12.22° C | 61% | 1013.6 hPa | 0 mm | - | - | - |
| 1778091633 | 12.22° C | 61% | 1013.7 hPa | 0 mm | - | - | - |
| 1778091325 | 12.22° C | 61% | 1013.7 hPa | 0 mm | - | - | - |
| 1778091017 | 12.22° C | 63% | 1013.8 hPa | 0 mm | - | - | - |
| 1778090727 | 12.22° C | 61% | 1013.8 hPa | 0 mm | - | - | - |
| 1778090420 | 12.78° C | 59% | 1013.7 hPa | 0 mm | - | - | - |
| 1778090130 | 12.78° C | 59% | 1013.6 hPa | 0 mm | - | - | - |
| 1778089822 | 12.78° C | 58% | 1013.6 hPa | 0 mm | - | - | - |
| 1778089526 | 12.78° C | 60% | 1013.5 hPa | 0 mm | - | - | - |
| 1778089224 | 13.33° C | 57% | 1013.5 hPa | 0 mm | - | - | - |
| 1778088916 | 13.89° C | 55% | 1013.4 hPa | 0 mm | - | - | - |
| 1778088620 | 13.89° C | 57% | 1013.4 hPa | 0 mm | - | - | - |
| 1778088318 | 13.89° C | 56% | 1013.5 hPa | 0 mm | - | - | - |
| 1778088017 | 14.44° C | 57% | 1013.6 hPa | 0 mm | - | - | - |
* Rain latest hour (hover to see other rain measurements)
** Current wind speed in m/s (hover to see current wind gust speed)